Flag for Grenada Weather past 2 weeks in Saint George's, Grenada

Now
82 °F

Scattered clouds.


Feels Like: 92 °F
Forecast: 76 / 82 °F
Wind: 8 mph from East

Location: Point Salines Airport

Current Time: Aug 29, 2015 at 11:24:36 AM

Latest Report: Aug 29, 2015 at 11:00 AM


Visibility: N/A

Pressure: 29.98 "Hg

Humidity: 89%

Dew point: 79 °F

Location of Saint George'sLocation

Historic Weather in Saint George's — Graph

°F

Saint George's temperature yesterday

Maximum temperature yesterday: 90 °F (at 4:00 PM)
Minimum temperature yesterday: 82 °F (at 12:00 AM)
Average temperature yesterday: 85 °F

Past Weeks' High & Low Weather Summary

 TemperatureHumidityPressure
High90 °F (Aug 19, 12:00 PM)100% (Aug 26, 3:00 PM)32.52 "Hg (Aug 26, 3:00 PM)
Low77 °F (Aug 17, 5:00 AM)59% (Aug 22, 12:00 PM)28.26 "Hg (Aug 26, 8:00 AM)
Average84 °F81%29.91 "Hg
* Reported Aug 14 10:00 AM — Aug 29 10:00 AM, Saint George's, Weather by CustomWeather, © 2015

Note: Actual official high and low records may vary slightly from our data, if they occured in-between our weather recording intervals... More about our weather records

Advertising

Saint George's weather history for previous 24 hours

 ConditionsComfort  
Time TempWeatherWind HumidityBarometerVisibility
10:00 AM
Sat, Aug 29
79 °FScattered clouds.7 mph94%29.95 "HgN/A
9:00 AM79 °FScattered clouds.7 mph94%29.95 "HgN/A
8:00 AM81 °FThunderstorms. Scattered clouds.10 mph94%29.95 "HgN/A
7:00 AM81 °FPassing clouds.7 mph94%29.92 "HgN/A
6:00 AM79 °FScattered clouds.No wind94%29.92 "HgN/A
5:00 AM77 °FRain showers. Passing clouds.6 mph100%29.89 "Hg5 mi
3:00 AM81 °FPassing clouds.9 mph89%29.89 "HgN/A
2:00 AM82 °FPassing clouds.9 mph84%29.92 "HgN/A
1:00 AM82 °FPassing clouds.9 mph79%29.92 "HgN/A
12:00 AM82 °FPassing clouds.9 mph79%29.95 "HgN/A
11:00 PM
Fri, Aug 28
82 °FPassing clouds.12 mph84%29.98 "HgN/A
10:00 PM82 °FPassing clouds.9 mph84%29.95 "HgN/A
9:00 PM82 °FPassing clouds.7 mph84%29.95 "HgN/A
8:00 PM82 °FPassing clouds.7 mph84%29.92 "HgN/A
7:00 PM84 °FPassing clouds.7 mph74%29.92 "HgN/A
6:00 PM84 °FPassing clouds.8 mph79%29.89 "HgN/A
5:00 PM88 °FPassing clouds.15 mph70%29.89 "HgN/A
4:00 PM90 °FPassing clouds.15 mph63%29.89 "HgN/A
3:00 PM88 °FPassing clouds.16 mph70%29.89 "HgN/A
2:00 PM88 °FPassing clouds.23 mph75%29.92 "HgN/A
1:00 PM88 °FPassing clouds.21 mph75%29.95 "HgN/A
12:00 PM88 °FScattered clouds.18 mph75%29.98 "HgN/A
11:00 AM88 °FScattered clouds.18 mph75%29.98 "HgN/A
Weather by CustomWeather, © 2015

See weather overviewHow to use our weather pages